QFA164 NZWN-YSSY

Flight info

Callsign QFA164
Flight time 2h 51m
Altitude 36000
Route TANEN M636 PLUGA DCT RIKNI DCT MARLN
Aircraft A21N/M-SDE2E3FGHIRWXY/LB1

Departure

Time 2026-04-25 06:53
Airport Wellington International Airport (NZWN)

Arrival

Time 2026-04-25 09:44
Airport Sydney Kingsford Smith International Airport (YSSY)
Time Latitude Longitude Altitude Speed Heading
2026-04-25 05:50 -41.32857 174.81001 28 ft 0 kts 46°
2026-04-25 06:08 -41.32865 174.80991 28 ft 2 kts 46°
2026-04-25 06:08 -41.32875 174.80975 28 ft 2 kts 46°
2026-04-25 06:08 -41.32886 174.80962 27 ft 2 kts 46°
2026-04-25 06:09 -41.32896 174.80949 27 ft 2 kts
2026-04-25 06:09 -41.32909 174.80955 27 ft 2 kts 307°
2026-04-25 06:09 -41.32912 174.80972 28 ft 2 kts 262°
2026-04-25 06:09 -41.32912 174.80988 28 ft 0 kts 273°
2026-04-25 06:10 -41.32912 174.80991 28 ft 0 kts 275°
2026-04-25 06:12 -41.32911 174.80978 28 ft 3 kts 275°
2026-04-25 06:13 -41.32909 174.80925 27 ft 7 kts 270°
2026-04-25 06:13 -41.32950 174.80873 26 ft 10 kts 184°
2026-04-25 06:13 -41.33028 174.80873 26 ft 11 kts 182°
2026-04-25 06:14 -41.33118 174.80867 28 ft 0 kts 183°
2026-04-25 06:15 -41.33131 174.80865 28 ft 3 kts 182°
2026-04-25 06:15 -41.33164 174.80864 29 ft 6 kts 182°
2026-04-25 06:15 -41.33196 174.80861 29 ft 0 kts 182°
2026-04-25 06:16 -41.33203 174.80861 29 ft 2 kts 182°
2026-04-25 06:16 -41.33221 174.80855 29 ft 2 kts 214°
2026-04-25 06:16 -41.33225 174.80850 29 ft 0 kts 227°
2026-04-25 06:17 -41.33236 174.80811 27 ft 5 kts 255°
2026-04-25 06:17 -41.33249 174.80788 26 ft 0 kts 211°
2026-04-25 06:18 -41.33250 174.80788 26 ft 0 kts 211°
2026-04-25 06:24 -41.33267 174.80777 26 ft 4 kts 195°
2026-04-25 06:24 -41.33297 174.80775 26 ft 0 kts 180°
2026-04-25 06:29 -41.33299 174.80775 26 ft 1 kts 180°
2026-04-25 06:30 -41.33310 174.80775 26 ft 1 kts 182°
2026-04-25 06:30 -41.33316 174.80775 26 ft 0 kts 182°
2026-04-25 06:34 -41.33319 174.80775 26 ft 2 kts 182°
2026-04-25 06:34 -41.33369 174.80772 26 ft 5 kts 182°
2026-04-25 06:34 -41.33372 174.80772 26 ft 0 kts 181°
2026-04-25 06:36 -41.33374 174.80772 26 ft 1 kts 181°
2026-04-25 06:36 -41.33402 174.80771 26 ft 5 kts 182°
2026-04-25 06:36 -41.33424 174.80769 26 ft 0 kts 182°
2026-04-25 06:43 -41.33427 174.80769 26 ft 1 kts 182°
2026-04-25 06:43 -41.33447 174.80769 26 ft 4 kts 183°
2026-04-25 06:43 -41.33462 174.80768 26 ft 0 kts 184°
2026-04-25 06:43 -41.33470 174.80766 26 ft 0 kts 184°
2026-04-25 06:48 -41.33481 174.80765 26 ft 3 kts 184°
2026-04-25 06:48 -41.33510 174.80762 25 ft 5 kts 187°
2026-04-25 06:49 -41.33514 174.80762 25 ft 0 kts 191°
2026-04-25 06:50 -41.33534 174.80753 25 ft 5 kts 203°
2026-04-25 06:51 -41.33570 174.80698 23 ft 10 kts 257°
2026-04-25 06:51 -41.33530 174.80633 20 ft 10 kts
2026-04-25 06:51 -41.33488 174.80637 21 ft 0 kts
2026-04-25 06:52 -41.33421 174.80641 21 ft 38 kts
2026-04-25 06:52 -41.32894 174.80675 24 ft 111 kts
2026-04-25 06:52 -41.31914 174.80743 152 ft 159 kts
2026-04-25 06:53 -41.30776 174.80817 732 ft 167 kts
2026-04-25 06:53 -41.29675 174.80888 1517 ft 154 kts
2026-04-25 06:53 -41.28622 174.80959 2043 ft 156 kts
2026-04-25 06:53 -41.27476 174.81032 2369 ft 171 kts 359°
2026-04-25 06:54 -41.26236 174.80902 2709 ft 187 kts 348°
2026-04-25 06:54 -41.24941 174.80399 3062 ft 203 kts 338°
2026-04-25 06:54 -41.23544 174.79724 3365 ft 224 kts 342°
2026-04-25 06:54 -41.21990 174.79121 3755 ft 242 kts 343°
2026-04-25 06:55 -41.20306 174.78507 4241 ft 256 kts 344°
2026-04-25 06:55 -41.18543 174.77884 4909 ft 263 kts 345°
2026-04-25 06:55 -41.16764 174.77263 5543 ft 271 kts 345°
2026-04-25 06:55 -41.14921 174.76581 6172 ft 277 kts 338°
2026-04-25 06:56 -41.13240 174.75304 6800 ft 282 kts 318°
2026-04-25 06:56 -41.11882 174.73436 7503 ft 284 kts 309°
2026-04-25 06:56 -41.10600 174.71420 8209 ft 287 kts 308°
2026-04-25 06:56 -41.09310 174.69371 8855 ft 291 kts 308°
2026-04-25 06:57 -41.08009 174.67334 9517 ft 294 kts 309°
2026-04-25 06:57 -41.06667 174.65263 10000 ft 296 kts 309°
2026-04-25 06:57 -41.05304 174.63174 10319 ft 301 kts 309°
2026-04-25 06:57 -41.03914 174.61050 10735 ft 312 kts 309°
2026-04-25 06:58 -41.02567 174.58749 10981 ft 326 kts 296°
2026-04-25 06:58 -41.01921 174.55815 11283 ft 335 kts 276°
2026-04-25 06:58 -41.01600 174.52667 11542 ft 350 kts 275°
2026-04-25 06:58 -41.01275 174.49434 11771 ft 363 kts 276°
2026-04-25 06:59 -41.00923 174.46074 12091 ft 374 kts 276°
2026-04-25 06:59 -41.00556 174.42656 12634 ft 377 kts 276°
2026-04-25 06:59 -41.00179 174.39218 13212 ft 379 kts 276°
2026-04-25 06:59 -40.99795 174.35754 13727 ft 381 kts 276°
2026-04-25 07:00 -40.99409 174.32281 14253 ft 384 kts 277°
2026-04-25 07:00 -40.99017 174.28766 14767 ft 387 kts 277°
2026-04-25 07:00 -40.98617 174.25197 15243 ft 390 kts 277°
2026-04-25 07:00 -40.98218 174.21645 15702 ft 393 kts 277°
2026-04-25 07:01 -40.97815 174.18076 16165 ft 396 kts 277°
2026-04-25 07:01 -40.97407 174.14488 16600 ft 399 kts 277°
2026-04-25 07:01 -40.96996 174.10883 17025 ft 402 kts 277°
2026-04-25 07:01 -40.96576 174.07199 17459 ft 404 kts 278°
2026-04-25 07:02 -40.96155 174.03526 17889 ft 407 kts 278°
2026-04-25 07:02 -40.95729 173.99823 18291 ft 409 kts 278°
2026-04-25 07:02 -40.95300 173.96107 18683 ft 412 kts 278°
2026-04-25 07:02 -40.94870 173.92404 19082 ft 414 kts 277°
2026-04-25 07:03 -40.94431 173.88631 19456 ft 417 kts 277°
2026-04-25 07:03 -40.93992 173.84860 19839 ft 419 kts 277°
2026-04-25 07:03 -40.93545 173.81020 20213 ft 421 kts 277°
2026-04-25 07:03 -40.93099 173.77212 20572 ft 423 kts 277°
2026-04-25 07:04 -40.92650 173.73390 20907 ft 425 kts 277°
2026-04-25 07:04 -40.92195 173.69527 21239 ft 427 kts 277°
2026-04-25 07:04 -40.91740 173.65665 21566 ft 429 kts 277°
2026-04-25 07:04 -40.91276 173.61746 21907 ft 431 kts 277°
2026-04-25 07:05 -40.90812 173.57835 22228 ft 433 kts 277°
2026-04-25 07:05 -40.90349 173.53943 22518 ft 435 kts 277°
2026-04-25 07:05 -40.89878 173.50000 22818 ft 437 kts 277°
2026-04-25 07:05 -40.89388 173.46019 23124 ft 438 kts 277°
2026-04-25 07:06 -40.88897 173.42059 23406 ft 440 kts 277°
2026-04-25 07:06 -40.88404 173.38060 23690 ft 442 kts 277°
2026-04-25 07:06 -40.87913 173.34062 23969 ft 444 kts 277°
2026-04-25 07:06 -40.87420 173.30022 24246 ft 445 kts 277°
2026-04-25 07:07 -40.86891 173.25989 24510 ft 448 kts 281°
2026-04-25 07:07 -40.85889 173.22052 24745 ft 452 kts 290°
2026-04-25 07:07 -40.84637 173.18277 25021 ft 454 kts 292°
2026-04-25 07:07 -40.83316 173.14471 25268 ft 456 kts 293°
2026-04-25 07:08 -40.81977 173.10646 25512 ft 457 kts 293°
2026-04-25 07:08 -40.80642 173.06841 25735 ft 459 kts 293°
2026-04-25 07:08 -40.79448 173.02910 25936 ft 459 kts 283°
2026-04-25 07:08 -40.78851 172.98793 26186 ft 458 kts 276°
2026-04-25 07:09 -40.78463 172.94623 26483 ft 457 kts 274°
2026-04-25 07:09 -40.78102 172.90431 26804 ft 457 kts 274°
2026-04-25 07:09 -40.77730 172.86328 27108 ft 456 kts 275°
2026-04-25 07:09 -40.77323 172.82114 27428 ft 455 kts 275°
2026-04-25 07:10 -40.76904 172.77983 27737 ft 455 kts 275°
2026-04-25 07:10 -40.76472 172.73850 28051 ft 454 kts 275°
2026-04-25 07:10 -40.76033 172.69734 28351 ft 454 kts 276°
2026-04-25 07:10 -40.75588 172.65601 28670 ft 453 kts 276°
2026-04-25 07:11 -40.75135 172.61436 29009 ft 451 kts 276°
2026-04-25 07:11 -40.74686 172.57342 29317 ft 451 kts 275°
2026-04-25 07:11 -40.74240 172.53291 29635 ft 450 kts 276°
2026-04-25 07:11 -40.73785 172.49171 29953 ft 449 kts 275°
2026-04-25 07:12 -40.73335 172.45099 30256 ft 448 kts 275°
2026-04-25 07:12 -40.72429 172.36971 30870 ft 447 kts 275°
2026-04-25 07:12 -40.71974 172.32907 31174 ft 447 kts 276°
2026-04-25 07:13 -40.71520 172.28859 31443 ft 447 kts 276°
2026-04-25 07:13 -40.71068 172.24838 31723 ft 447 kts 276°
2026-04-25 07:13 -40.70610 172.20781 32021 ft 446 kts 276°
2026-04-25 07:13 -40.70153 172.16751 32298 ft 446 kts 276°
2026-04-25 07:14 -40.69696 172.12727 32565 ft 446 kts 276°
2026-04-25 07:14 -40.69234 172.08676 32832 ft 446 kts 276°
2026-04-25 07:14 -40.68771 172.04640 33094 ft 446 kts 276°
2026-04-25 07:14 -40.68309 172.00612 33367 ft 445 kts 276°
2026-04-25 07:15 -40.67844 171.96582 33642 ft 444 kts 276°
2026-04-25 07:15 -40.67381 171.92583 33897 ft 444 kts 276°
2026-04-25 07:15 -40.66915 171.88564 34126 ft 444 kts 276°
2026-04-25 07:15 -40.66449 171.84554 34364 ft 444 kts 276°
2026-04-25 07:16 -40.65974 171.80482 34586 ft 445 kts 276°
2026-04-25 07:16 -40.65507 171.76491 34784 ft 446 kts 276°
2026-04-25 07:16 -40.65034 171.72455 34999 ft 446 kts 276°
2026-04-25 07:16 -40.64554 171.68388 35220 ft 447 kts 276°
2026-04-25 07:17 -40.64077 171.64354 35420 ft 447 kts 276°
2026-04-25 07:17 -40.63602 171.60344 35615 ft 448 kts 276°
2026-04-25 07:17 -40.63117 171.56271 35809 ft 448 kts 276°
2026-04-25 07:17 -40.62637 171.52241 36001 ft 448 kts 276°
2026-04-25 07:18 -40.62155 171.48215 36164 ft 449 kts 276°
2026-04-25 07:18 -40.61667 171.44147 36216 ft 450 kts 276°
2026-04-25 07:18 -40.60679 171.35954 36229 ft 450 kts 276°
2026-04-25 07:19 -40.59699 171.27856 36234 ft 451 kts 277°
2026-04-25 07:19 -40.58703 171.19681 36234 ft 451 kts 277°
2026-04-25 07:20 -40.57709 171.11577 36234 ft 451 kts 277°
2026-04-25 07:20 -40.56710 171.03477 36232 ft 450 kts 277°
2026-04-25 07:21 -40.55704 170.95371 36238 ft 450 kts 277°
2026-04-25 07:21 -40.54695 170.87293 36239 ft 451 kts 277°
2026-04-25 07:22 -40.53675 170.79156 36243 ft 451 kts 277°
2026-04-25 07:22 -40.52649 170.71010 36243 ft 450 kts 277°
2026-04-25 07:23 -40.51618 170.62877 36249 ft 451 kts 277°
2026-04-25 07:23 -40.50450 170.54778 36251 ft 452 kts 281°
2026-04-25 07:24 -40.48777 170.46783 36255 ft 454 kts 283°
2026-04-25 07:24 -40.47038 170.38837 36253 ft 453 kts 283°
2026-04-25 07:25 -40.45291 170.30852 36253 ft 453 kts 284°
2026-04-25 07:25 -40.43561 170.22931 36255 ft 453 kts 284°
2026-04-25 07:26 -40.41816 170.14980 36261 ft 454 kts 284°
2026-04-25 07:26 -40.40067 170.07045 36258 ft 454 kts 284°
2026-04-25 07:27 -40.38306 169.99087 36261 ft 454 kts 284°
2026-04-25 07:27 -40.36552 169.91187 36264 ft 454 kts 284°
2026-04-25 07:28 -40.34779 169.83234 36265 ft 454 kts 284°
2026-04-25 07:28 -40.33010 169.75325 36270 ft 454 kts 284°
2026-04-25 07:29 -40.31215 169.67326 36271 ft 455 kts 284°
2026-04-25 07:29 -40.29429 169.59398 36272 ft 455 kts 284°
2026-04-25 07:30 -40.27443 169.50613 36275 ft 455 kts 284°
2026-04-25 07:30 -40.25645 169.42696 36273 ft 455 kts 284°
2026-04-25 07:31 -40.23841 169.34776 36278 ft 455 kts 285°
2026-04-25 07:31 -40.22036 169.26859 36282 ft 455 kts 285°
2026-04-25 07:32 -40.20224 169.18939 36285 ft 456 kts 285°
2026-04-25 07:32 -40.18407 169.11043 36287 ft 456 kts 285°
2026-04-25 07:33 -40.16563 169.03062 36285 ft 456 kts 285°
2026-04-25 07:33 -40.14714 168.95081 36286 ft 456 kts 285°
2026-04-25 07:34 -40.12875 168.87170 36288 ft 457 kts 285°
2026-04-25 07:34 -40.11024 168.79251 36288 ft 456 kts 285°
2026-04-25 07:35 -40.09179 168.71365 36290 ft 457 kts 285°
2026-04-25 07:35 -40.07316 168.63444 36290 ft 457 kts 285°
2026-04-25 07:36 -40.05446 168.55513 36294 ft 457 kts 285°
2026-04-25 07:36 -40.03583 168.47639 36296 ft 457 kts 285°
2026-04-25 07:37 -40.01706 168.39740 36299 ft 457 kts 285°
2026-04-25 07:37 -39.99831 168.31865 36299 ft 457 kts 286°
2026-04-25 07:38 -39.97944 168.23943 36304 ft 457 kts 286°
2026-04-25 07:38 -39.96061 168.16083 36306 ft 458 kts 287°
2026-04-25 07:39 -39.94159 168.08174 36305 ft 457 kts 287°
2026-04-25 07:39 -39.92242 168.00243 36306 ft 458 kts 287°
2026-04-25 07:40 -39.90330 167.92351 36312 ft 458 kts 287°
2026-04-25 07:40 -39.88389 167.84451 36314 ft 458 kts 287°
2026-04-25 07:41 -39.86433 167.76535 36313 ft 458 kts 287°
2026-04-25 07:41 -39.84490 167.68640 36311 ft 457 kts 287°
2026-04-25 07:42 -39.82558 167.60788 36314 ft 457 kts 287°
2026-04-25 07:42 -39.80613 167.52896 36316 ft 457 kts 287°
2026-04-25 07:43 -39.78672 167.45047 36316 ft 457 kts 287°
2026-04-25 07:43 -39.76738 167.37253 36316 ft 457 kts 287°
2026-04-25 07:44 -39.74785 167.29390 36317 ft 457 kts 287°
2026-04-25 07:44 -39.72837 167.21564 36316 ft 457 kts 287°
2026-04-25 07:45 -39.70874 167.13715 36318 ft 457 kts 287°
2026-04-25 07:45 -39.68915 167.05917 36320 ft 457 kts 287°
2026-04-25 07:46 -39.66943 166.98091 36319 ft 457 kts 287°
2026-04-25 07:46 -39.64964 166.90268 36321 ft 457 kts 287°
2026-04-25 07:47 -39.62993 166.82501 36322 ft 457 kts 287°
2026-04-25 07:47 -39.60995 166.74654 36323 ft 457 kts 287°
2026-04-25 07:48 -39.59016 166.66904 36323 ft 457 kts 287°
2026-04-25 07:48 -39.57016 166.59097 36325 ft 457 kts 287°
2026-04-25 07:49 -39.55013 166.51308 36326 ft 457 kts 287°
2026-04-25 07:49 -39.53015 166.43555 36326 ft 457 kts 287°
2026-04-25 07:50 -39.50999 166.35762 36328 ft 457 kts 287°
2026-04-25 07:50 -39.48985 166.27975 36328 ft 457 kts 288°
2026-04-25 07:51 -39.46961 166.20178 36329 ft 457 kts 288°
2026-04-25 07:51 -39.44942 166.12436 36330 ft 456 kts 288°
2026-04-25 07:52 -39.42909 166.04671 36332 ft 457 kts 288°
2026-04-25 07:52 -39.40870 165.96909 36332 ft 456 kts 288°
2026-04-25 07:53 -39.38828 165.89160 36331 ft 457 kts 288°
2026-04-25 07:53 -39.36783 165.81426 36333 ft 457 kts 288°
2026-04-25 07:54 -39.34730 165.73683 36336 ft 457 kts 288°
2026-04-25 07:54 -39.32666 165.65922 36338 ft 457 kts 288°
2026-04-25 07:55 -39.30598 165.58171 36340 ft 457 kts 288°
2026-04-25 07:55 -39.28540 165.50482 36343 ft 457 kts 288°
2026-04-25 07:56 -39.26461 165.42740 36344 ft 458 kts 288°
2026-04-25 07:56 -39.24368 165.34964 36343 ft 457 kts 289°
2026-04-25 07:57 -39.22292 165.27255 36343 ft 458 kts 289°
2026-04-25 07:57 -39.20203 165.19524 36345 ft 458 kts 289°
2026-04-25 07:58 -39.18100 165.11777 36348 ft 458 kts 289°
2026-04-25 07:58 -39.15994 165.04050 36349 ft 458 kts 289°
2026-04-25 07:59 -39.13879 164.96312 36352 ft 458 kts 289°
2026-04-25 07:59 -39.11763 164.88597 36349 ft 458 kts 289°
2026-04-25 08:00 -39.09626 164.80827 36356 ft 458 kts 289°
2026-04-25 08:00 -39.07502 164.73131 36355 ft 458 kts 289°
2026-04-25 08:01 -39.05351 164.65355 36360 ft 458 kts 289°
2026-04-25 08:01 -39.03215 164.57658 36361 ft 459 kts 289°
2026-04-25 08:02 -39.01061 164.49919 36362 ft 459 kts 289°
2026-04-25 08:02 -38.98905 164.42198 36363 ft 459 kts 289°
2026-04-25 08:03 -38.96754 164.34514 36363 ft 459 kts 290°
2026-04-25 08:03 -38.94592 164.26790 36364 ft 459 kts 290°
2026-04-25 08:04 -38.92435 164.19112 36367 ft 459 kts 290°
2026-04-25 08:04 -38.90257 164.11397 36368 ft 459 kts 290°
2026-04-25 08:05 -38.88048 164.03676 36369 ft 459 kts 290°
2026-04-25 08:05 -38.85840 163.95984 36368 ft 459 kts 290°
2026-04-25 08:06 -38.83647 163.88316 36370 ft 459 kts 290°
2026-04-25 08:06 -38.81449 163.80631 36370 ft 459 kts 290°
2026-04-25 08:07 -38.79248 163.72952 36369 ft 460 kts 290°
2026-04-25 08:07 -38.77030 163.65236 36371 ft 460 kts 290°
2026-04-25 08:08 -38.74810 163.57533 36370 ft 460 kts 290°
2026-04-25 08:08 -38.72595 163.49866 36370 ft 460 kts 290°
2026-04-25 08:09 -38.70357 163.42145 36376 ft 461 kts 290°
2026-04-25 08:09 -38.68130 163.34482 36371 ft 461 kts 290°
2026-04-25 08:10 -38.65894 163.26776 36372 ft 461 kts 290°
2026-04-25 08:10 -38.63643 163.19052 36372 ft 461 kts 290°
2026-04-25 08:11 -38.61402 163.11391 36372 ft 462 kts 290°
2026-04-25 08:11 -38.59158 163.03746 36372 ft 462 kts 290°
2026-04-25 08:12 -38.56842 162.96031 36373 ft 462 kts 291°
2026-04-25 08:12 -38.54467 162.88455 36374 ft 462 kts 292°
2026-04-25 08:13 -38.52080 162.80838 36379 ft 462 kts 291°
2026-04-25 08:14 -38.48523 162.69475 36381 ft 462 kts 291°
2026-04-25 08:14 -38.46137 162.61862 36381 ft 462 kts 291°
2026-04-25 08:15 -38.43764 162.54312 36382 ft 462 kts 291°
2026-04-25 08:15 -38.41365 162.46703 36385 ft 462 kts 291°
2026-04-25 08:16 -38.38982 162.39160 36385 ft 463 kts 291°
2026-04-25 08:16 -38.36582 162.31573 36388 ft 463 kts 292°
2026-04-25 08:17 -38.34179 162.23979 36390 ft 463 kts 292°
2026-04-25 08:17 -38.31780 162.16435 36392 ft 464 kts 292°
2026-04-25 08:18 -38.29361 162.08856 36389 ft 464 kts 292°
2026-04-25 08:18 -38.26929 162.01262 36393 ft 463 kts 292°
2026-04-25 08:19 -38.24510 161.93729 36394 ft 463 kts 292°
2026-04-25 08:19 -38.22069 161.86147 36395 ft 464 kts 292°
2026-04-25 08:20 -38.19617 161.78549 36392 ft 464 kts 292°
2026-04-25 08:20 -38.17179 161.71019 36392 ft 464 kts 292°
2026-04-25 08:21 -38.14722 161.63444 36393 ft 465 kts 292°
2026-04-25 08:21 -38.12273 161.55920 36392 ft 464 kts 292°
2026-04-25 08:22 -38.09801 161.48344 36393 ft 464 kts 292°
2026-04-25 08:22 -38.07342 161.40825 36391 ft 464 kts 292°
2026-04-25 08:23 -38.04858 161.33252 36392 ft 465 kts 293°
2026-04-25 08:23 -38.02378 161.25676 36392 ft 465 kts 292°
2026-04-25 08:24 -37.99904 161.18155 36393 ft 465 kts 293°
2026-04-25 08:24 -37.97420 161.10637 36391 ft 465 kts 292°
2026-04-25 08:25 -37.94919 161.03090 36391 ft 465 kts 292°
2026-04-25 08:25 -37.92422 160.95573 36394 ft 465 kts 292°
2026-04-25 08:26 -37.89910 160.88032 36394 ft 465 kts 292°
2026-04-25 08:26 -37.87368 160.80504 36394 ft 465 kts 293°
2026-04-25 08:27 -37.84844 160.73029 36394 ft 465 kts 293°
2026-04-25 08:27 -37.82310 160.65501 36394 ft 465 kts 292°
2026-04-25 08:28 -37.79793 160.58031 36393 ft 465 kts 292°
2026-04-25 08:28 -37.77254 160.50508 36393 ft 465 kts 292°
2026-04-25 08:29 -37.74729 160.43042 36394 ft 465 kts 292°
2026-04-25 08:29 -37.72183 160.35536 36394 ft 465 kts 292°
2026-04-25 08:30 -37.69656 160.28084 36392 ft 465 kts 293°
2026-04-25 08:30 -37.67105 160.20578 36393 ft 465 kts 293°
2026-04-25 08:31 -37.64557 160.13113 36394 ft 465 kts 293°
2026-04-25 08:31 -37.62000 160.05650 36394 ft 465 kts 293°
2026-04-25 08:32 -37.59434 159.98177 36394 ft 465 kts 293°
2026-04-25 08:32 -37.56872 159.90739 36392 ft 465 kts 293°
2026-04-25 08:33 -37.54297 159.83279 36391 ft 465 kts 293°
2026-04-25 08:33 -37.51735 159.75876 36392 ft 466 kts 293°
2026-04-25 08:34 -37.49151 159.68428 36394 ft 465 kts 293°
2026-04-25 08:34 -37.46556 159.60968 36391 ft 466 kts 293°
2026-04-25 08:35 -37.43966 159.53542 36393 ft 466 kts 293°
2026-04-25 08:35 -37.41365 159.46100 36391 ft 466 kts 293°
2026-04-25 08:36 -37.38755 159.38650 36391 ft 466 kts 293°
2026-04-25 08:36 -37.36144 159.31206 36391 ft 465 kts 294°
2026-04-25 08:37 -37.33548 159.23807 36392 ft 466 kts 294°
2026-04-25 08:37 -37.30926 159.16370 36392 ft 466 kts 294°
2026-04-25 08:38 -37.28305 159.08957 36392 ft 466 kts 294°
2026-04-25 08:38 -37.25684 159.01569 36392 ft 467 kts 294°
2026-04-25 08:39 -37.23040 158.94132 36389 ft 467 kts 293°
2026-04-25 08:39 -37.20406 158.86740 36389 ft 467 kts 293°
2026-04-25 08:40 -37.17756 158.79323 36391 ft 467 kts 293°
2026-04-25 08:40 -37.15108 158.71925 36391 ft 467 kts 293°
2026-04-25 08:41 -37.12448 158.64508 36392 ft 468 kts 293°
2026-04-25 08:41 -37.09776 158.57069 36391 ft 468 kts 293°
2026-04-25 08:42 -37.07115 158.49696 36392 ft 468 kts 293°
2026-04-25 08:42 -37.04421 158.42285 36386 ft 468 kts 293°
2026-04-25 08:43 -37.01739 158.34918 36393 ft 468 kts 294°
2026-04-25 08:43 -36.99047 158.27498 36391 ft 468 kts 294°
2026-04-25 08:44 -36.96368 158.20134 36390 ft 468 kts 294°
2026-04-25 08:44 -36.93665 158.12729 36390 ft 469 kts 294°
2026-04-25 08:45 -36.90968 158.05365 36388 ft 469 kts 294°
2026-04-25 08:45 -36.88247 157.97992 36390 ft 468 kts 294°
2026-04-25 08:46 -36.85498 157.90604 36390 ft 469 kts 294°
2026-04-25 08:46 -36.82769 157.83240 36393 ft 469 kts 293°
2026-04-25 08:47 -36.80058 157.75919 36390 ft 469 kts 293°
2026-04-25 08:47 -36.77312 157.68514 36385 ft 469 kts 293°
2026-04-25 08:48 -36.74595 157.61203 36385 ft 469 kts 293°
2026-04-25 08:48 -36.71841 157.53810 36380 ft 469 kts 293°
2026-04-25 08:49 -36.69107 157.46487 36379 ft 469 kts 293°
2026-04-25 08:49 -36.66356 157.39136 36379 ft 469 kts 293°
2026-04-25 08:50 -36.63616 157.31825 36377 ft 469 kts 294°
2026-04-25 08:50 -36.60856 157.24457 36377 ft 469 kts 294°
2026-04-25 08:51 -36.58106 157.17148 36376 ft 470 kts 294°
2026-04-25 08:51 -36.55328 157.09790 36375 ft 470 kts 294°
2026-04-25 08:52 -36.52567 157.02498 36375 ft 470 kts 294°
2026-04-25 08:52 -36.49782 156.95160 36367 ft 470 kts 294°
2026-04-25 08:53 -36.47007 156.87868 36373 ft 470 kts 294°
2026-04-25 08:53 -36.44210 156.80531 36367 ft 470 kts 294°
2026-04-25 08:54 -36.41419 156.73228 36367 ft 470 kts 294°
2026-04-25 08:54 -36.38623 156.65930 36368 ft 470 kts 294°
2026-04-25 08:55 -36.35815 156.58615 36370 ft 470 kts 294°
2026-04-25 08:55 -36.33020 156.51353 36371 ft 470 kts 294°
2026-04-25 08:56 -36.30198 156.44041 36370 ft 470 kts 294°
2026-04-25 08:56 -36.27387 156.36768 36366 ft 470 kts 294°
2026-04-25 08:57 -36.24580 156.29506 36372 ft 470 kts 294°
2026-04-25 08:57 -36.21758 156.22217 36367 ft 471 kts 294°
2026-04-25 08:58 -36.18899 156.14865 36371 ft 471 kts 294°
2026-04-25 08:58 -36.16062 156.07590 36363 ft 470 kts 294°
2026-04-25 08:59 -36.13204 156.00281 36372 ft 471 kts 294°
2026-04-25 08:59 -36.10345 155.92986 36372 ft 471 kts 294°
2026-04-25 09:00 -36.07496 155.85735 36372 ft 471 kts 294°
2026-04-25 09:00 -36.04621 155.78435 36368 ft 471 kts 294°
2026-04-25 09:01 -36.01770 155.71205 36366 ft 471 kts 294°
2026-04-25 09:01 -35.98897 155.63943 36365 ft 471 kts 294°
2026-04-25 09:02 -35.96034 155.56717 36365 ft 470 kts 294°
2026-04-25 09:02 -35.93156 155.49475 36361 ft 471 kts 294°
2026-04-25 09:03 -35.90285 155.42264 36360 ft 471 kts 294°
2026-04-25 09:03 -35.87381 155.35040 36357 ft 470 kts 294°
2026-04-25 09:04 -35.84473 155.27800 36356 ft 471 kts 295°
2026-04-25 09:04 -35.81578 155.20573 36356 ft 471 kts 295°
2026-04-25 09:05 -35.78697 155.13397 36354 ft 471 kts 295°
2026-04-25 09:05 -35.75790 155.06168 36352 ft 471 kts 295°
2026-04-25 09:06 -35.72889 154.98969 36354 ft 471 kts 295°
2026-04-25 09:06 -35.69974 154.91748 36351 ft 471 kts 295°
2026-04-25 09:07 -35.67059 154.84534 36349 ft 471 kts 295°
2026-04-25 09:07 -35.64154 154.77373 36345 ft 471 kts 294°
2026-04-25 09:08 -35.60983 154.70355 36347 ft 471 kts 301°
2026-04-25 09:08 -35.57123 154.63792 36347 ft 473 kts 308°
2026-04-25 09:09 -35.52874 154.57703 36340 ft 474 kts 309°
2026-04-25 09:09 -35.48556 154.51570 36344 ft 473 kts 309°
2026-04-25 09:10 -35.44257 154.45450 36341 ft 474 kts 309°
2026-04-25 09:10 -35.39967 154.39343 36340 ft 473 kts 309°
2026-04-25 09:11 -35.33556 154.30209 36338 ft 473 kts 309°
2026-04-25 09:11 -35.29280 154.24118 36337 ft 474 kts 310°
2026-04-25 09:12 -35.24955 154.17984 36338 ft 474 kts 310°
2026-04-25 09:12 -35.20659 154.11908 36332 ft 474 kts 310°
2026-04-25 09:13 -35.16355 154.05833 36327 ft 474 kts 310°
2026-04-25 09:13 -35.12033 153.99747 36338 ft 474 kts 310°
2026-04-25 09:14 -35.07727 153.93692 36332 ft 474 kts 310°
2026-04-25 09:14 -35.03397 153.87611 36332 ft 474 kts 310°
2026-04-25 09:15 -34.99080 153.81566 36333 ft 474 kts 310°
2026-04-25 09:15 -34.94759 153.75522 36332 ft 474 kts 310°
2026-04-25 09:16 -34.92588 153.72490 36078 ft 475 kts 310°
2026-04-25 09:16 -34.90414 153.69453 35786 ft 472 kts 309°
2026-04-25 09:16 -34.88260 153.66460 35494 ft 469 kts 310°
2026-04-25 09:16 -34.86107 153.63483 35207 ft 467 kts 310°
2026-04-25 09:17 -34.81804 153.57529 34626 ft 466 kts 309°
2026-04-25 09:17 -34.79681 153.54584 34340 ft 466 kts 309°
2026-04-25 09:17 -34.77542 153.51619 34053 ft 467 kts 309°
2026-04-25 09:18 -34.75393 153.48637 33796 ft 467 kts 309°
2026-04-25 09:18 -34.73224 153.45628 33539 ft 468 kts 309°
2026-04-25 09:18 -34.71090 153.42670 33284 ft 468 kts 309°
2026-04-25 09:18 -34.68928 153.39681 33026 ft 468 kts 309°
2026-04-25 09:19 -34.66798 153.36732 32776 ft 468 kts 310°
2026-04-25 09:19 -34.64637 153.33745 32519 ft 469 kts 310°
2026-04-25 09:19 -34.62484 153.30757 32264 ft 470 kts 310°
2026-04-25 09:19 -34.60347 153.27797 32011 ft 470 kts 310°
2026-04-25 09:20 -34.58194 153.24818 31758 ft 470 kts 310°
2026-04-25 09:20 -34.56024 153.21825 31504 ft 471 kts 310°
2026-04-25 09:20 -34.53849 153.18829 31247 ft 471 kts 311°
2026-04-25 09:20 -34.51683 153.15849 30996 ft 471 kts 311°
2026-04-25 09:21 -34.49512 153.12868 30741 ft 471 kts 311°
2026-04-25 09:21 -34.47334 153.09878 30488 ft 471 kts 311°
2026-04-25 09:21 -34.45161 153.06902 30234 ft 472 kts 311°
2026-04-25 09:21 -34.42979 153.03911 29978 ft 473 kts 311°
2026-04-25 09:22 -34.40815 153.00949 29723 ft 473 kts 311°
2026-04-25 09:22 -34.38610 152.97935 29463 ft 474 kts 311°
2026-04-25 09:22 -34.36426 152.94952 29100 ft 475 kts 311°
2026-04-25 09:22 -34.34261 152.91997 28563 ft 475 kts 311°
2026-04-25 09:23 -34.32057 152.88988 27880 ft 476 kts 311°
2026-04-25 09:23 -34.29865 152.85998 27125 ft 476 kts 311°
2026-04-25 09:23 -34.27668 152.83005 26311 ft 478 kts 311°
2026-04-25 09:23 -34.25460 152.79999 25677 ft 474 kts 312°
2026-04-25 09:24 -34.23300 152.77060 25157 ft 469 kts 312°
2026-04-25 09:24 -34.21125 152.74103 24609 ft 464 kts 312°
2026-04-25 09:24 -34.19020 152.71240 24072 ft 460 kts 312°
2026-04-25 09:24 -34.16900 152.68358 23518 ft 456 kts 312°
2026-04-25 09:25 -34.14804 152.65512 22976 ft 451 kts 312°
2026-04-25 09:25 -34.12720 152.62691 22447 ft 447 kts 312°
2026-04-25 09:25 -34.10668 152.59886 21907 ft 444 kts 310°
2026-04-25 09:25 -34.08994 152.56821 21376 ft 440 kts 297°
2026-04-25 09:26 -34.07922 152.53409 20870 ft 434 kts 283°
2026-04-25 09:26 -34.07427 152.49843 20335 ft 430 kts 276°
2026-04-25 09:26 -34.07108 152.46242 19714 ft 429 kts 274°
2026-04-25 09:26 -34.06817 152.42683 19096 ft 427 kts 274°
2026-04-25 09:27 -34.06519 152.39169 18549 ft 424 kts 275°
2026-04-25 09:27 -34.06205 152.35634 18010 ft 420 kts 275°
2026-04-25 09:27 -34.05885 152.32152 17492 ft 416 kts 276°
2026-04-25 09:27 -34.05562 152.28690 16966 ft 412 kts 276°
2026-04-25 09:28 -34.05241 152.25284 16452 ft 409 kts 276°
2026-04-25 09:28 -34.04923 152.21939 15945 ft 405 kts 276°
2026-04-25 09:28 -34.04601 152.18561 15423 ft 402 kts 276°
2026-04-25 09:28 -34.04279 152.15207 14904 ft 399 kts 276°
2026-04-25 09:29 -34.03963 152.11919 14395 ft 396 kts 276°
2026-04-25 09:29 -34.03645 152.08643 13885 ft 392 kts 276°
2026-04-25 09:29 -34.03329 152.05402 13382 ft 389 kts 276°
2026-04-25 09:29 -34.03003 152.02150 12861 ft 387 kts 276°
2026-04-25 09:30 -34.02679 151.98936 12348 ft 384 kts 277°
2026-04-25 09:30 -34.02361 151.95781 11854 ft 381 kts 277°
2026-04-25 09:30 -34.02044 151.92644 11348 ft 379 kts 277°
2026-04-25 09:30 -34.01831 151.89497 10968 ft 371 kts 267°
2026-04-25 09:31 -34.02309 151.86467 10779 ft 364 kts 253°
2026-04-25 09:31 -34.02797 151.84547 10611 ft 360 kts 251°
2026-04-25 09:31 -34.03811 151.80791 10292 ft 346 kts 251°
2026-04-25 09:31 -34.04529 151.78040 9921 ft 336 kts 252°
2026-04-25 09:32 -34.05183 151.75424 9648 ft 320 kts 252°
2026-04-25 09:32 -34.05800 151.72890 9386 ft 305 kts 253°
2026-04-25 09:32 -34.06372 151.70489 9097 ft 294 kts 253°
2026-04-25 09:32 -34.06927 151.68138 8745 ft 290 kts 253°
2026-04-25 09:33 -34.07475 151.65802 8363 ft 288 kts 253°
2026-04-25 09:33 -34.08012 151.63493 7990 ft 287 kts 253°
2026-04-25 09:33 -34.08552 151.61169 7632 ft 285 kts 254°
2026-04-25 09:33 -34.09082 151.58884 7260 ft 283 kts 254°
2026-04-25 09:34 -34.09609 151.56604 6898 ft 281 kts 254°
2026-04-25 09:34 -34.10133 151.54330 6535 ft 280 kts 254°
2026-04-25 09:34 -34.10651 151.52084 6164 ft 278 kts 254°
2026-04-25 09:34 -34.11163 151.49867 5814 ft 276 kts 255°
2026-04-25 09:35 -34.11676 151.47636 5456 ft 274 kts 255°
2026-04-25 09:35 -34.12181 151.45441 5108 ft 273 kts 255°
2026-04-25 09:35 -34.12692 151.43216 4762 ft 271 kts 255°
2026-04-25 09:35 -34.13190 151.41048 4398 ft 270 kts 255°
2026-04-25 09:36 -34.13691 151.38864 4035 ft 269 kts 255°
2026-04-25 09:36 -34.14189 151.36690 3780 ft 264 kts 256°
2026-04-25 09:36 -34.14663 151.34621 3610 ft 255 kts 256°
2026-04-25 09:36 -34.15128 151.32579 3445 ft 246 kts 256°
2026-04-25 09:37 -34.15575 151.30609 3288 ft 238 kts 256°
2026-04-25 09:37 -34.16008 151.28708 3133 ft 231 kts 257°
2026-04-25 09:37 -34.16423 151.26883 2970 ft 223 kts 257°
2026-04-25 09:37 -34.16829 151.25101 3007 ft 210 kts 258°
2026-04-25 09:38 -34.16890 151.23453 2936 ft 189 kts 289°
2026-04-25 09:38 -34.16195 151.22272 2885 ft 162 kts 332°
2026-04-25 09:38 -34.15184 151.22011 2903 ft 147 kts
2026-04-25 09:38 -34.14153 151.22113 2923 ft 148 kts
2026-04-25 09:39 -34.13122 151.22133 2924 ft 149 kts 359°
2026-04-25 09:39 -34.12083 151.22020 2922 ft 149 kts 354°
2026-04-25 09:39 -34.11062 151.21828 2843 ft 149 kts 352°
2026-04-25 09:40 -34.09026 151.21343 2456 ft 148 kts 351°
2026-04-25 09:40 -34.08021 151.21083 2257 ft 147 kts 351°
2026-04-25 09:40 -34.07010 151.20819 2064 ft 147 kts 351°
2026-04-25 09:40 -34.06003 151.20555 1873 ft 147 kts 351°
2026-04-25 09:41 -34.05011 151.20296 1683 ft 146 kts 351°
2026-04-25 09:41 -34.04006 151.20032 1489 ft 146 kts 351°
2026-04-25 09:41 -34.03018 151.19774 1304 ft 145 kts 351°
2026-04-25 09:41 -34.02026 151.19516 1113 ft 145 kts 351°
2026-04-25 09:42 -34.01034 151.19257 925 ft 145 kts 352°
2026-04-25 09:42 -34.00048 151.19005 748 ft 145 kts 352°
2026-04-25 09:42 -33.99051 151.18747 588 ft 147 kts 351°
2026-04-25 09:42 -33.98023 151.18460 399 ft 149 kts 351°
2026-04-25 09:43 -33.97011 151.18210 155 ft 146 kts 353°
2026-04-25 09:43 -33.96031 151.17961 26 ft 138 kts 352°
2026-04-25 09:43 -33.95192 151.17752 19 ft 102 kts 349°
2026-04-25 09:43 -33.94668 151.17609 24 ft 52 kts 341°
2026-04-25 09:44 -33.94442 151.17480 22 ft 31 kts 322°
2026-04-25 09:44 -33.94338 151.17368 22 ft 13 kts 317°
2026-04-25 09:44 -33.94264 151.17300 21 ft 13 kts 344°
2026-04-25 09:44 -33.94166 151.17276 20 ft 15 kts 348°
2026-04-25 09:45 -33.94057 151.17247 20 ft 16 kts 348°
2026-04-25 09:45 -33.93987 151.17210 20 ft 9 kts 298°
2026-04-25 09:45 -33.93992 151.17134 22 ft 9 kts 253°
2026-04-25 09:45 -33.94010 151.17059 24 ft 10 kts 254°
2026-04-25 09:46 -33.94030 151.16972 24 ft 11 kts 254°
2026-04-25 09:46 -33.94054 151.16872 24 ft 10 kts 254°
2026-04-25 09:46 -33.94042 151.16817 24 ft 7 kts 323°
2026-04-25 09:46 -33.94000 151.16795 25 ft 3 kts 343°
2026-04-25 09:47 -33.93975 151.16809 25 ft 5 kts 54°
2026-04-25 09:47 -33.93963 151.16849 26 ft 4 kts 75°
2026-04-25 09:47 -33.93956 151.16879 26 ft 1 kts 74°
2026-04-25 09:47 -33.93952 151.16893 26 ft 1 kts 75°
2026-04-25 09:48 -33.93952 151.16895 26 ft 0 kts 75°